Location: Unspecified
(40.7945°N, 0.0000°E)
Time: 15:06:07
(UTC+00:00)

Vanguard 1 - Visible Passes

Search period start: 25 January 2021 00:00
Search period end: 04 February 2021 00:00
Orbit: 648 x 3834 km, 34.3° (Epoch: 24 January)

Date Brightness Start Highest point End Pass type
(mag) Time Alt. Az. Time Alt. Az. Time Alt. Az.
25 Jan 13.4 17:14:41 10° W 17:37:31 61° SSW 17:55:29 10° SE visible
25 Jan 13.5 19:43:05 10° W 20:00:33 31° SW 20:13:17 10° S visible
26 Jan 13.5 17:36:11 10° W 17:58:30 54° SSW 18:15:55 10° SE visible
26 Jan 13.6 20:05:51 10° W 20:20:42 23° SW 20:32:06 10° S visible
27 Jan 13.6 17:57:48 10° W 18:19:18 47° SW 18:36:05 10° SSE visible
27 Jan 13.9 20:29:43 10° W 20:40:45 17° SW 20:49:50 10° SSW visible
28 Jan 13.7 18:19:35 10° W 18:39:54 40° SW 18:55:57 10° SSE visible
28 Jan 14.1 20:57:32 10° WSW 21:00:44 11° WSW 21:03:45 10° SW visible
29 Jan 13.8 18:41:41 10° W 19:00:21 32° SW 19:15:23 10° S visible
30 Jan 13.9 19:04:19 10° W 19:20:39 25° SW 19:34:13 10° S visible
31 Jan 14.1 19:27:54 10° W 19:40:51 19° SW 19:52:03 10° SSW visible
01 Feb 14.0 17:19:05 10° W 17:39:06 40° SW 17:57:18 10° SSE visible
01 Feb 14.3 19:54:05 10° WSW 20:00:59 12° WSW 20:07:24 10° SW visible
02 Feb 14.1 17:41:04 10° W 17:59:42 33° SW 18:16:43 10° SSE visible
03 Feb 14.2 18:03:33 10° W 18:20:11 26° SW 18:35:32 10° S visible
